Location: Casteau
(50.5142°N, 4.0161°E)
Time: 05:32:10
(UTC+00:00)

Transit 2A - Pass Details

Date: 31 July 2021
Orbit: 594 x 964 km, 66.7° (Epoch: 24 September)

Event Time Altitude Azimuth Distance (km) Brightness Sun altitude
Rises 12:44:31 0° 323° (NW) 3,122 9.0 55.9°
Reaches altitude 10° 12:47:07 10° 336° (NNW) 2,261 8.3 55.7°
Maximum altitude 12:51:32 27° 34° (NE) 1,485 7.5 55.4°
Drops below altitude 10° 12:56:19 10° 92° (E) 2,469 8.6 55.0°
Sets 12:59:17 0° 104° (ESE) 3,465 9.3 54.8°
